PPCOA SBBI-SBRD

Flight info

Callsign PPCOA
Flight time N/A
Altitude 38000
Route PRR DCT DIKUN
Aircraft CL60/M-SBDE1E2E3FGHIJ4J5J7M3RWXYZ/LB1V1D1

Departure

Time 2026-04-20 01:21
Airport Bacacheri Airport (SBBI)

Arrival

Time N/A
Airport Maestro Marinho Franco Airport (SBRD)
Time Latitude Longitude Altitude Speed Heading
2026-04-20 00:28 -25.40269 -49.23025 3034 ft 0 kts 149°
2026-04-20 00:34 -25.40270 -49.23025 3034 ft 0 kts 148°
2026-04-20 00:49 -25.40270 -49.23026 3034 ft 0 kts 146°
2026-04-20 01:16 -25.40270 -49.23025 3034 ft 0 kts 146°
2026-04-20 01:16 -25.40285 -49.23030 3034 ft 5 kts 221°
2026-04-20 01:16 -25.40326 -49.23065 3034 ft 6 kts 200°
2026-04-20 01:17 -25.40367 -49.23073 3034 ft 0 kts 193°
2026-04-20 01:17 -25.40368 -49.23073 3034 ft 1 kts 195°
2026-04-20 01:17 -25.40389 -49.23105 3033 ft 8 kts 247°
2026-04-20 01:17 -25.40415 -49.23169 3034 ft 6 kts 226°
2026-04-20 01:18 -25.40471 -49.23158 3034 ft 10 kts 157°
2026-04-20 01:18 -25.40553 -49.23122 3034 ft 14 kts 158°
2026-04-20 01:18 -25.40655 -49.23076 3034 ft 17 kts 158°
2026-04-20 01:18 -25.40774 -49.23021 3036 ft 19 kts 157°
2026-04-20 01:19 -25.40881 -49.22973 3037 ft 15 kts 158°
2026-04-20 01:19 -25.40973 -49.22932 3037 ft 6 kts 157°
2026-04-20 01:19 -25.40979 -49.22929 3037 ft 0 kts 157°
2026-04-20 01:20 -25.40991 -49.22923 3037 ft 4 kts 157°
2026-04-20 01:20 -25.41033 -49.22913 3037 ft 8 kts 181°
2026-04-20 01:20 -25.41076 -49.22939 3037 ft 5 kts 278°
2026-04-20 01:20 -25.41061 -49.22951 3037 ft 8 kts 338°
2026-04-20 01:21 -25.40659 -49.23132 3034 ft 115 kts 339°
2026-04-20 01:21 -25.39678 -49.23581 3243 ft 176 kts 338°
2026-04-20 01:21 -25.38493 -49.24118 4087 ft 197 kts 338°
2026-04-20 01:21 -25.37203 -49.24771 4956 ft 224 kts 332°
2026-04-20 01:22 -25.35746 -49.25766 5627 ft 263 kts 328°
2026-04-20 01:22 -25.34176 -49.26886 6748 ft 280 kts 328°
2026-04-20 01:22 -25.32536 -49.28051 7927 ft 285 kts 328°
2026-04-20 01:22 -25.30861 -49.29236 8896 ft 292 kts 328°